This demonstration page uses our WeatherBlox Daily Observations layout. Learn more.

Left ArrowRight Arrow

41.86663, -103.66717

Hourly Observations for December 25, 2020

Temp ( °F °C ) Dew Point ( °F °C ) Humidity (%) Winds ( mph kmh ) Pressure ( in mb ) Visibility ( mi km ) Precip ( " mm )
12:53 am 00:53 Clear 29 -1.7 12 -11.1 49 49 WNW 13 20 30.14 1021 10 16 0.00 0.00
1:53 am 01:53 Clear 27 -2.8 11 -11.7 51 51 NW 10 17 30.15 1021 10 16 0.00 0.00
2:53 am 02:53 Clear 27 -2.8 11 -11.7 51 51 NNW 7 11 30.14 1021 10 16 0.00 0.00
3:53 am 03:53 Clear 26 -3.3 11 -11.7 53 53 N 5 7 30.14 1021 10 16 0.00 0.00
4:53 am 04:53 Clear 26 -3.3 11 -11.7 53 53 N 7 11 30.15 1021 10 16 0.00 0.00
5:53 am 05:53 Clear 25 -3.9 11 -11.7 55 55 NNW 7 11 30.16 1021 10 16 0.00 0.00
6:53 am 06:53 Clear 23 -5 10 -12.2 57 57 WNW 8 13 30.17 1022 10 16 0.00 0.00
7:53 am 07:53 Sunny 25 -3.9 12 -11.1 58 58 N 7 11 30.17 1022 10 16 0.00 0.00
8:53 am 08:53 Sunny 36 2.2 14 -10 40 40 NNW 5 7 30.15 1021 10 16 0.00 0.00
9:53 am 09:53 Sunny 43 6.1 14 -10 31 31 NW 9 15 30.15 1021 10 16 0.00 0.00
10:53 am 10:53 Sunny 48 8.9 14 -10 25 25 WNW 14 22 30.11 1020 10 16 0.00 0.00
11:53 am 11:53 Sunny 53 11.7 14 -10 21 21 WNW 10 17 30.07 1018 10 16 0.00 0.00
12:53 pm 12:53 Sunny 55 12.8 14 -10 20 20 WNW 9 15 30.03 1017 10 16 0.00 0.00
1:53 pm 13:53 Sunny 58 14.4 13 -10.6 17 17 WNW 10 17 30.00 1016 10 16 0.00 0.00
2:53 pm 14:53 Sunny 58 14.4 12 -11.1 16 16 WNW 7 11 29.98 1015 10 16 0.00 0.00
3:53 pm 15:53 Sunny 52 11.1 12 -11.1 20 20 W 6 9 30.01 1016 10 16 0.00 0.00
4:53 pm 16:53 Clear 47 8.3 13 -10.6 25 25 Calm 30.00 1016 10 16 0.00 0.00
5:53 pm 17:53 Clear 35 1.7 12 -11.1 38 38 NW 6 9 30.04 1017 10 16 0.00 0.00
6:53 pm 18:53 Clear 31 -0.6 11 -11.7 43 43 NNW 7 11 30.06 1018 10 16 0.00 0.00
7:53 pm 19:53 Clear 33 0.6 13 -10.6 43 43 NNW 6 9 30.05 1018 10 16 0.00 0.00
8:53 pm 20:53 Clear 32 0 14 -10 47 47 NW 8 13 30.02 1017 10 16 0.00 0.00
9:53 pm 21:53 Clear 31 -0.6 15 -9.4 52 52 NNW 6 9 29.98 1015 10 16 0.00 0.00
10:53 pm 22:53 Clear 29 -1.7 15 -9.4 56 56 NNW 3 6 29.95 1014 10 16 0.00 0.00
11:53 pm 23:53 Clear 22 -5.6 12 -11.1 66 66 E 8 13 29.94 1014 10 16 0.00 0.00

Powered by AerisWeather